Location: Bottom School (historical)
(37.9078°N, 89.3593°W)
Time: 19:46:22
(UTC+00:00)

SL-4 R/B - Pass Details

Date: 06 July 2022
Orbit: 425 x 653 km, 51.6° (Epoch: 16 August)

Event Time Altitude Azimuth Distance (km) Brightness Sun altitude
Exits shadow 06:19:50 18° 338° (NNW) 1,179 4.3 -29.3°
Drops below altitude 10° 06:22:25 10° 24° (NNE) 1,634 5.3 -29.2°
Sets 06:25:10 0° 43° (NE) 2,561 6.2 -29.2°
